{"data":{"norad_id":62564,"intl_designator":"2025-006L","name":"STARLINK-11540 [DTC]","alt_names":[],"object_type":"PAYLOAD","status":"ACTIVE","operator":null,"country":"US","launch_date":"2025-01-10","launch_site_code":"AFETR","launch_vehicle":null,"mission":null,"orbit_class":"UNKNOWN","rcs_meters":null,"size_class":null,"mass_kg":null,"dimensions":null,"purposes":["comms"],"wikipedia_slug":null,"has_3d_model":false,"image_url":null,"decayed_at":null,"tle_current":{"epoch":"2026-05-25T00:12:49.245984Z","epoch_age_seconds":81261,"freshness":"FRESH","line1":"1 62564U 25006L   26145.00890331  .00147969  00000+0  11359-2 0  9994","line2":"2 62564  43.0038  40.0239 0003690 283.0644  76.9811 15.70842093 78608","mean_motion":15.70842093,"eccentricity":0.000369,"inclination_deg":43.0038,"raan_deg":40.0239,"arg_perigee_deg":283.0644,"mean_anomaly_deg":76.9811,"bstar":0.0011359,"rev_number":7860,"period_min":91.670576337172,"perigee_km":354.0040023662,"apogee_km":358.97415641279,"semimajor_km":6734.6260793895,"source":"CELESTRAK","updated_at":"2026-05-25T13:38:19.708647Z"}}}